GAOFEN-1

Last updated on Sun Nov 16 2025 00:03:20 GMT+0000 (Coordinated Universal Time)

1 39150U 13018A 25319.52693727 .00001730 00000+0 25496-3 0 9991 2 39150 97.9358 30.6631 0016733 231.8345 128.1358 14.76539709676712
UTC large
Height (km)
Speed (km/s)
/
Latitude / Longitude
Inclination (degrees)
Orbital Period (minutes)
Azimuth
Elevation
Range (km)
Doppler Factor

Next 0 passes for location: London (51.5072 / 0.1276)

Sorry there are no passes over London.